Location: Aragoneses
(41.0275°N, 4.3847°W)
Time: 14:03:10
(UTC+00:00)

Hubble Space Telescope - Pass Details

Date: 20 February 2026
Orbit: 476 x 478 km, 28.5° (Epoch: 14 March)

Event Time Altitude Azimuth Distance (km) Brightness Sun altitude
Exits shadow 06:29:56 - 232° (SW) 2,450 3.7 -7.4°
Reaches altitude 10° 06:33:04 10° 202° (SSW) 1,639 3.1 -6.8°
Maximum altitude 06:34:36 12° 178° (S) 1,511 3.2 -6.5°
Drops below altitude 10° 06:36:09 10° 154° (SSE) 1,640 3.8 -6.2°
Sets 06:39:29 0° 122° (ESE) 2,518 5.7 -5.6°
